Regional Weather Roundup
Issued by NWS Cleveland, OH

Home | Current Version | Previous Version | Graphics & Text | Print | Product List | Glossary On
Versions: 1 2 3 4 5 6 7 8 9 10 11 12 13 14 15 16 17 18 19 20 21 22 23 24 25 26 27 28 29 30 31 32 33 34 35 36 37 38 39 40 41 42 43 44 45 46 47 48 49 50
000
ASUS41 KCLE 040702
RWRCLE
OHIO REGIONAL WEATHER ROUNDUP
NATIONAL WEATHER SERVICE CLEVELAND, OH
300 AM EDT MON MAY 04 2015

NOTE: "FAIR" INDICATES FEW OR NO CLOUDS BELOW 12,000 FEET WITH NO
SIGNIFICANT WEATHER AND/OR OBSTRUCTIONS TO VISIBILITY.

OHZ001>008-015>018-024>027-034-035-043-044-040800-
   NORTHWEST OHIO

CITY           SKY/WX    TMP DP  RH WIND       PRES   REMARKS
DEFIANCE       PTCLDY    63  48  58 S7        30.03F
FINDLAY        PTCLDY    60  46  59 S10       30.05F
TOLEDO EXPRESS MOCLDY    64  46  52 S9        30.03F
TOLEDO EXEC    MOCLDY    64  46  52 S10       30.04F
LIMA           CLEAR     60  46  59 S9        30.07F
$$

OHZ009>014-019>023-028>033-038-089-040800-
   NORTHEAST OHIO

CITY           SKY/WX    TMP DP  RH WIND       PRES   REMARKS
CLE-HOPKINS    MOCLDY    62  44  51 S9        30.11S
CLE-LAKEFRONT  PTCLDY    65  43  44 S10       30.07S
CUY CO. ARPT   NOT AVBL
LORAIN-ELYRIA  CLEAR     55  45  68 S6        30.09S
ASHTABULA      MOCLDY    58  43  57 S6        30.11S
AKRON-CANTON   PTCLDY    61  42  49 S5        30.12S
WOOSTER        CLEAR     51  43  74 CALM      30.12S
MANSFIELD      CLEAR     57  44  62 S8        30.11S
YOUNGSTOWN     MOCLDY    62  40  44 S6        30.12S
$$

OHZ042-051>053-060>062-070>072-077>081-040800-
  SOUTHWEST OHIO

CITY           SKY/WX    TMP DP  RH WIND       PRES   REMARKS
CINC-COVINGTON MOCLDY    59  48  67 S6        30.11R
CINC-LUNKEN    PTCLDY    52  50  93 CALM      30.12R
HAMILTON       PTCLDY    53  50  89 CALM      30.11R
DAYTON         PTCLDY    63  47  55 S8        30.10F
WRIGHT-PAT AFB PTCLDY    57  47  69 SE3       30.10S
DAYTON GENERAL CLEAR     58  47  66 S6        30.10S
WILMINGTON     CLEAR     57  44  62 S3        30.12R
$$

OHZ036-037-039>041-045>050-054>059-063>069-073>076-082>088-040800-
  CENTRAL AND SOUTHEAST OHIO

CITY           SKY/WX    TMP DP  RH WIND       PRES   REMARKS
COLUMBUS       CLEAR     56  48  74 CALM      30.11R
OSU AIRPORT    CLEAR     58  43  57 S3        30.11R
BOLTON FIELD   NOT AVBL
RICKENBACK AFB CLEAR     54  46  73 CALM      30.11S
NEWARK         CLEAR     48  46  93 CALM      30.12R
MARION         CLEAR     55  44  66 S8        30.10S
LANCASTER      CLEAR     50  46  86 CALM      30.12R
ZANESVILLE     CLEAR     52  44  74 CALM      30.12S
NEW PHILLY     CLEAR     51  44  77 CALM      30.13S
$$


USA.gov is the U.S. government's official web portal to all federal, state and local government web resources and services.